Terminal Aerodrome Forecast
Issued by NWS Greer, SC

Home | Current Version | Previous Version | Graphics & Text | Print | Product List | Glossary On
Versions: 1 2 3 4 5 6 7 8 9 10 11 12 13 14 15 16 17 18 19 20 21 22 23 24 25 26 27 28 29 30 31 32 33 34 35 36 37 38 39 40 41 42
000
FTUS42 KGSP 172334
TAFAVL
TAF
KAVL 172334Z 1800/1824 34010KT P6SM FEW200
     FM181100 33007G14KT P6SM SCT070 BKN110
     FM181700 33003KT P6SM BKN070=

USA.gov is the U.S. government's official web portal to all federal, state and local government web resources and services.